Location: Ammareddip?lem
(16.9681°N, 80.4999°E)
Time: 13:41:03
(UTC+00:00)

Envisat - Pass Details

Date: 19 October 2021
Orbit: 764 x 766 km, 98.2° (Epoch: 04 December)

Event Time Altitude Azimuth Distance (km) Brightness Sun altitude
Rises 22:34:55 0° 35° (NE) 3,223 6.6 -28.6°
Reaches altitude 10° 22:37:49 10° 52° (NE) 2,295 6.0 -27.9°
Maximum altitude 22:41:27 20° 99° (E) 1,716 5.6 -27.1°
Drops below altitude 10° 22:45:04 10° 145° (SE) 2,292 5.9 -26.2°
Sets 22:47:56 0° 161° (SSE) 3,215 6.5 -25.5°
